Skip Page Navigation
NASA JPL Caltech
NASA Logo - Jet Propulsion Laboratory + View the NASA Portal
+ Center for Near-Earth Object Studies
JPL Home Earth Solar System Stars & Galaxies Technology
JPL Solar System Dynamics
BODIES ORBITS EPHEMERIDES TOOLS PHYSICAL DATA DISCOVERY FAQ SITE MAP
JPL Small-Body Database Browser
Search: [ help ]  
17649 Brunorossi (1996 UP1)
Classification: Main-belt Asteroid          SPK-ID: 2017649
Ephemeris | Orbit Diagram | Orbital Elements | Mission Design | Physical Parameters | Discovery Circumstances ]

[ show orbit diagram ]
Orbital Elements at Epoch 2459000.5 (2020-May-31.0) TDB
Reference: JPL 26 (heliocentric ecliptic J2000)
 Element Value Uncertainty (1-sigma)   Units 
e .1785686667528313 3.6003e-08  
a 2.611135900289379 1.291e-08 au
q 2.144868843864251 9.6823e-08 au
i 15.50597256026903 7.2212e-06 deg
node 215.279080169706 1.6289e-05 deg
peri 68.94685558673835 2.7226e-05 deg
M 292.7790688349905 2.2709e-05 deg
tp 2459288.269434984533
(2021-Mar-14.76943498)
9.8145e-05 TDB
period 1541.141944911903
4.22
1.1429e-05
3.129e-08
d
yr
n .2335930192468929 1.7323e-09 deg/d
Q 3.077402956714508 1.5215e-08 au
  Orbit Determination Parameters
   # obs. used (total)      1263  
   data-arc span      10545 days (28.87 yr)  
   first obs. used      1991-06-14  
   last obs. used      2020-04-27  
   planetary ephem.      DE431  
   SB-pert. ephem.      SB431-N16  
   condition code      0  
   norm. resid. RMS      .48836  
   source      ORB  
   producer      Otto Matic  
   solution date      2020-May-20 04:39:05  

Additional Information
 Earth MOID = 1.18362 au 
 Jupiter MOID = 2.15538 au 
 T_jup = 3.336 
[ show covariance matrix ]

Ephemeris | Orbit Diagram | Orbital Elements | Mission Design | Physical Parameters | Discovery Circumstances ]

Physical Parameter Table
Parameter Symbol Value Units Sigma Reference Notes
absolute magnitude H 14.3   n/a MPO384905  
diameter diameter 4.904 km 0.318 urn:nasa:pds:neowise_diameters_albedos::2.0[mainbelt] (http://adsabs.harvard.edu/abs/2011ApJ...741...68M)  
geometric albedo albedo 0.168   0.062 urn:nasa:pds:neowise_diameters_albedos::2.0[mainbelt] (http://adsabs.harvard.edu/abs/2011ApJ...741...68M)  

17649 Brunorossi           Discovered 1996 Oct. 17 by V. S. Casulli at the Colleverde.
Bruno Rossi (1905-1993) was a physicist who worked on the Manhattan Project and was a pioneer of X-ray astronomy.
NOTE: some special characters may not display properly (any characters within {} are an attempt to place the proper accent above a character)
Reference: 20120406/MPCPages.arcLast Updated: 2012-04-09

Alternate Designations
 1996 UP1 = 1991 LX 
Ephemeris | Orbit Diagram | Orbital Elements | Mission Design | Physical Parameters | Discovery Circumstances ]
ABOUT SSD CREDITS/AWARDS PRIVACY/COPYRIGHT GLOSSARY LINKS
FirstGov 2020-Sep-25 08:27 UT
(server date/time)  
NASA Home Page
Site Manager:   Ryan S. Park
Webmaster  Alan B. Chamberlin